Weather observations for the past three days for
Eureka Airport ASOS
Imperial (Metric)
Date Time (pdt) Wind (mph) Vis. (mi.) Weather Sky Cond. Temperature (ºF) Relative Humidity Wind Chill (°F) Heat Index (°F) Pressure Precipitation (in)
Air Dwpt 6 hour altimeter (in) sea level (mb) 1 hr 3 hr 6 hr
Max. Min.
31 09:53 Calm 0.00 NULL NULL 64.9 28 25% 30.12 1013.2
31 08:53 NE 5 0.00 NULL NULL 60.1 30 32% 30.13 1013.8
31 07:53 NE 3 0.00 NULL NULL 55 37 51% 30.13 1013.9
31 06:53 Calm 0.00 NULL NULL 50 33.1 52% 30.12 1013.2
31 05:53 S 7 0.00 NULL NULL 46.9 33.1 59% 44 30.11 1012.5
31 04:53 Calm 0.00 NULL NULL 46.9 34 54 46 61% 30.11 1012.1
31 03:53 S 5 0.00 NULL NULL 50 33.1 52% 49 30.1 1011.6
31 02:53 S 5 0.00 NULL NULL 52 30.9 45% 30.1 1011.4
31 01:53 S 7 0.00 NULL NULL 50 33.1 52% 48 30.1 1011.6
31 00:53 S 5 0.00 NULL NULL 50 33.1 52% 49 30.11 1012.3
30 23:53 S 6 0.00 NULL NULL 52 34 50% 30.12 1012.8
30 22:53 SE 7 0.00 NULL NULL 51.1 37 82 51.1 59% 30.12 1013.1
30 21:53 Calm 0.00 NULL NULL 59 34 39% 30.11 1012.4
30 20:53 NE 6 0.00 NULL NULL 59 35.1 41% 30.09 1011.9
30 19:53 NE 5 0.00 NULL NULL 64 34 33% 30.07 1011.4
30 18:53 N 9 0.00 NULL NULL 73.9 30 20% 30.06 1010.6
30 17:53 Calm 0.00 NULL NULL 80.1 21 11% 78 30.05 1009.9
30 16:53 Vrbl 5 0.00 NULL NULL 82 19 82 71.1 9% 80 30.06 1009.9
30 15:53 SE 6 0.00 NULL NULL 81 19 10% 79 30.07 1010.2
30 14:53 W 7 G 16 0.00 NULL NULL 80.1 19.9 11% 78 30.09 1010.9
30 13:53 Calm 0.00 NULL NULL 79 23 12% 78 30.11 1011.9
30 12:53 Vrbl 5 0.00 NULL NULL 77 19.9 12% 76 30.13 1011.8
30 11:53 W 5 0.00 NULL NULL 73.9 21.9 14% 30.14 1013.0
30 10:53 Vrbl 5 0.00 NULL NULL 72 28 72 48 19% 30.15 1013.3
30 09:53 SW 5 0.00 NULL NULL 69.1 30 23% 30.16 1013.5
30 08:53 Calm 0.00 NULL NULL 66 34 30% 30.16 1013.5
30 07:53 S 3 0.00 NULL NULL 60.1 39.9 48% 30.15 1013.7
30 06:53 S 5 0.00 NULL NULL 52 39 61% 30.14 1013.5
30 05:53 S 7 0.00 NULL NULL 51.1 41 69% 30.13 1012.5
30 04:53 Calm 0.00 NULL NULL 52 42.1 61 51.1 69% 30.12 1012.5
30 03:53 SE 5 0.00 NULL NULL 52 39.9 64% 30.11 1012.1
30 02:53 S 7 0.00 NULL NULL 55.9 37.9 51% 30.1 1011.5
30 01:53 S 7 0.00 NULL NULL 54 43 67% 30.09 1011.9
30 00:53 S 7 0.00 NULL NULL 60.1 42.1 52% 30.11 1011.7
29 23:53 S 7 0.00 NULL NULL 57.9 46 65% 30.1 1011.6
29 22:53 SW 5 0.00 NULL NULL 61 46.9 81 60.1 60% 30.09 1011.8
29 21:53 SW 3 0.00 NULL NULL 63 46.9 56% 30.1 1012.1
29 20:53 SE 3 0.00 NULL NULL 66 44.1 45% 30.08 1011.6
29 19:53 NW 8 0.00 NULL NULL 70 39 32% 30.05 1010.3
29 18:53 W 9 0.00 NULL NULL 75.9 36 23% 77 30.02 1008.8
29 17:53 W 14 G 25 0.00 NULL NULL 80.1 36 20% 79 30.02 1008.2
29 16:53 SW 9 0.00 NULL NULL 78.1 39.9 80.1 66.9 26% 78 30.03 1008.9
29 14:53 Vrbl 7 0.00 NULL NULL 77 48 36% 78 30.07 1010.5
29 13:53 SE 9 0.00 NULL NULL 73 51.1 46% 30.1 1012.0
29 12:53 Vrbl 5 G 25 0.00 NULL NULL 73 52 48% 30.13 1012.7
29 11:53 SE 6 0.00 NULL NULL 71.1 51.1 49% 30.14 1013.5
29 10:53 Calm 0.00 NULL NULL 66.9 50 66.9 55 55% 30.17 1014.9 0.06
29 08:53 S 3 0.00 NULL NULL 60.1 55.9 86% 30.18 1015.9
29 07:53 Calm 0.00 NULL NULL 55.9 54 93% 30.19 1016.4 0.01 0.06
29 06:53 Calm 0.00 NULL NULL 55 54 96% 30.18 1016.4
29 05:53 Calm 0.00 NULL NULL 55 54 96% 30.18 1015.8 0.05
29 04:53 Calm 0.00 NULL NULL 55 54 55.9 55 96% 30.18 1015.1 0.04 0.04
29 03:53 Calm 0.00 NULL NULL 55 54 96% 30.17 1014.6
29 02:53 S 3 0.00 NULL NULL 55 54 96% 30.19 1014.9
29 01:53 Calm 0.00 NULL NULL 55 54 96% 30.18 1014.9
29 00:53 Calm 0.00 NULL NULL 55.9 55 97% 30.2 1016.2
28 23:53 S 3 0.00 NULL NULL 55.9 55 97% 30.2 1014.8
28 22:53 Calm 0.00 NULL NULL 55.9 55 72 55.9 97% 30.21 1015.0 0.55
28 21:53 Calm 0.00 NULL NULL 57 55 93% 30.23 1016.0
28 20:53 N 5 0.00 NULL NULL 57 55 93% 30.23 1016.9 0.02
28 19:53 NW 3 0.00 NULL NULL 59 57.9 96% 30.21 1016.5 0.53
28 18:53 E 3 0.00 NULL NULL 59 57 93% 30.21 1016.5 0.52
28 17:53 W 21 G 35 0.00 Breezy NULL 62.1 57 84% 30.24 1017.4 0.01
28 16:53 E 5 0.00 NULL NULL 70 57 81 63 64% 30.15 1013.6 0.03
28 15:53 Calm 0.00 NULL NULL 73 52 48% 30.16 1013.1
28 14:53 E 12 0.00 NULL NULL 73.9 57 56% 30.16 1012.8
28 13:53 W 10 0.00 NULL NULL 73 52 48% 30.19 1014.0 0.02 0.03
28 12:53 W 21 G 48 0.00 Breezy NULL 64 57 78% 30.21 1015.5 0.01
28 11:53 N 9 0.00 NULL NULL 80.1 45 29% 79 30.16 1012.1
28 10:53 Calm 0.00 NULL NULL 79 44.1 80.1 60.1 29% 79 30.18 1012.7
Date Time (pdt) Wind (mph) Vis. (mi.) Weather Sky Cond. Air Dwpt Max. Min. Relative Humidity Wind Chill (°F) Heat Index (°F) altimeter (in) sea level (mb) 1 hr 3 hr 6 hr
6 hour
Temperature (ºF) Pressure Precipitation (in)